Weather History for Langdon, ND

Change the Weather History Date:

Wednesday, February 20, 2013

  Actual Average (KDVL) Record (KDVL)
Temperature  
Mean Temperature -4 °F -  
Max Temperature 5 °F 25 °F 45 °F (1990)
Min Temperature -14 °F 5 °F -32 °F (2008)
Degree Days  
Heating Degree Days 70    
Moisture  
Dew Point -12 °F    
Average Humidity 73    
Maximum Humidity 85    
Minimum Humidity 64    
Precipitation  
Precipitation 0.00 in - - ()
Sea Level Pressure  
Sea Level Pressure 30.33 in    
Wind  
Wind Speed 12 mph (ESE)    
Max Wind Speed 24 mph    
Max Gust Speed 31 mph    
Visibility 10 miles    
Events      
Averages and records for this station are not official NWS values.
T = Trace of Precipitation, MM = Missing Value Source: NWS Daily Summary

Daily Weather History Graph

Daily Weather History Graph

Search for Another Location

Airport:

Trip Planner

Search our weather history database for the weather conditions in past years. The results will help you decide how hot, cold, wet, or windy it might be!

Date:

Astronomy

Feb. 20, 2013 Rise Set
Actual Time 7:31 AM CST 6:03 PM CST
Civil Twilight 6:59 AM CST 6:35 PM CST
Nautical Twilight 6:23 AM CST 7:12 PM CST
Astronomical Twilight 5:46 AM CST 7:48 PM CST
Moon 1:10 PM CST (2/20) 4:08 AM CST (2/20)
Length of Visible Light 11h 35m
Length of Day
10h 31m
Waxing Gibbous, 76% of the Moon is Illuminated
Feb 20
Waxing Gibbous
Feb 25
Full
Mar 4
Last Quarter
Mar 11
New
Mar 19
First Quarter

Hourly Weather History & Observations

Time (CST) Temp. Windchill Dew Point Humidity Pressure Visibility Wind Dir Wind Speed Gust Speed Precip Events Conditions
12:15 AM -13.0 °F -32.4 °F -20.2 °F 70% 30.39 in 10.0 mi ENE 10.4 mph - N/A   Clear
12:35 AM - - - N/A% 30.40 in 10.0 mi East 8.1 mph - N/A   Clear
12:55 AM -11.2 °F -27.8 °F -20.2 °F 64% 30.41 in 10.0 mi ENE 8.1 mph - N/A   Clear
1:15 AM -11.2 °F -26.4 °F -20.2 °F 64% 30.41 in 10.0 mi East 6.9 mph - N/A   Clear
1:35 AM -11.2 °F -29.0 °F -20.2 °F 64% 30.41 in 10.0 mi ENE 9.2 mph - N/A   Clear
1:55 AM -11.2 °F -30.1 °F -20.2 °F 64% 30.40 in 10.0 mi East 10.4 mph - N/A   Clear
2:15 AM -11.2 °F -30.1 °F -20.2 °F 64% 30.39 in 10.0 mi East 10.4 mph - N/A   Clear
2:55 AM -11.2 °F -27.8 °F -20.2 °F 64% 30.39 in 10.0 mi East 8.1 mph - N/A   Clear
3:15 AM -11.2 °F -30.1 °F -20.2 °F 64% 30.39 in 10.0 mi East 10.4 mph - N/A   Clear
3:35 AM -11.2 °F -30.1 °F -20.2 °F 64% 30.38 in 10.0 mi East 10.4 mph - N/A   Clear
3:55 AM -11.2 °F -32.1 °F -20.2 °F 64% 30.38 in 10.0 mi East 12.7 mph - N/A   Clear
4:15 AM -11.2 °F -30.1 °F -20.2 °F 64% 30.38 in 10.0 mi ESE 10.4 mph - N/A   Clear
4:35 AM -11.2 °F -31.1 °F -20.2 °F 64% 30.37 in 10.0 mi East 11.5 mph - N/A   Clear
4:55 AM -13.0 °F -31.3 °F -20.2 °F 70% 30.38 in 10.0 mi ESE 9.2 mph - N/A   Clear
5:15 AM -13.0 °F -31.3 °F -20.2 °F 70% 30.37 in 10.0 mi ESE 9.2 mph - N/A   Clear
5:35 AM -11.2 °F -27.8 °F -20.2 °F 64% 30.38 in 10.0 mi ESE 8.1 mph - N/A   Clear
5:55 AM -11.2 °F -30.1 °F -20.2 °F 64% 30.37 in 10.0 mi ESE 10.4 mph - N/A   Clear
6:15 AM - - - N/A% 30.36 in 10.0 mi ESE 10.4 mph - N/A   Clear
6:35 AM -11.2 °F -29.0 °F -18.4 °F 70% 30.37 in 10.0 mi SSE 9.2 mph - N/A   Clear
6:55 AM -11.2 °F -30.1 °F -18.4 °F 70% 30.37 in 10.0 mi SE 10.4 mph - N/A   Clear
7:15 AM -11.2 °F -31.1 °F -18.4 °F 70% 30.37 in 10.0 mi SE 11.5 mph - N/A   Clear
7:35 AM -13.0 °F -32.4 °F -20.2 °F 70% 30.37 in 10.0 mi SE 10.4 mph - N/A   Clear
7:55 AM -14.8 °F -30.8 °F -20.2 °F 77% 30.37 in 10.0 mi SE 6.9 mph - N/A   Clear
8:15 AM -14.8 °F -33.5 °F -20.2 °F 77% 30.37 in 10.0 mi SE 9.2 mph - N/A   Clear
8:35 AM -13.0 °F -32.4 °F -20.2 °F 70% 30.38 in 10.0 mi SE 10.4 mph - N/A   Clear
8:55 AM -13.0 °F -31.3 °F -20.2 °F 70% 30.37 in 10.0 mi SE 9.2 mph - N/A   Clear
9:15 AM -13.0 °F -33.4 °F -20.2 °F 70% 30.37 in 10.0 mi SE 11.5 mph - N/A   Clear
9:35 AM -11.2 °F -29.0 °F -18.4 °F 70% 30.36 in 10.0 mi SE 9.2 mph - N/A   Clear
9:55 AM -11.2 °F -29.0 °F -18.4 °F 70% 30.37 in 10.0 mi SE 9.2 mph - N/A   Clear
10:15 AM -9.4 °F -27.9 °F -16.6 °F 71% 30.37 in 10.0 mi SE 10.4 mph - N/A   Clear
10:35 AM -9.4 °F -28.9 °F -16.6 °F 71% 30.37 in 10.0 mi SE 11.5 mph - N/A   Clear
10:55 AM -9.4 °F -26.8 °F -16.6 °F 71% 30.36 in 10.0 mi SE 9.2 mph - N/A   Clear
11:15 AM -7.6 °F -28.3 °F -13.0 °F 77% 30.35 in 10.0 mi SE 13.8 mph - N/A   Clear
11:35 AM -7.6 °F -28.3 °F -13.0 °F 77% 30.35 in 10.0 mi SE 13.8 mph - N/A   Clear
11:55 AM -4.0 °F -23.0 °F - N/A% 30.35 in 10.0 mi SE 12.7 mph - N/A   Clear
12:15 PM -4.0 °F -26.4 °F -11.2 °F 71% 30.33 in 10.0 mi ESE 18.4 mph - N/A   Clear
12:35 PM -2.2 °F -22.9 °F -9.4 °F 71% 30.33 in 10.0 mi ESE 16.1 mph - N/A   Clear
12:55 PM -2.2 °F -19.9 °F -9.4 °F 71% 30.33 in 10.0 mi SE 11.5 mph - N/A   Clear
1:15 PM -2.2 °F -21.5 °F -9.4 °F 71% 30.33 in 10.0 mi SE 13.8 mph - N/A   Clear
1:35 PM -2.2 °F -20.7 °F -9.4 °F 71% 30.33 in 10.0 mi SE 12.7 mph - N/A   Clear
1:55 PM -2.2 °F -20.7 °F -9.4 °F 71% 30.33 in 10.0 mi SSE 12.7 mph - N/A   Clear
2:35 PM -2.2 °F -21.5 °F -7.6 °F 78% 30.31 in 10.0 mi ESE 13.8 mph - N/A   Clear
2:55 PM -2.2 °F -20.7 °F -7.6 °F 78% 30.31 in 10.0 mi SE 12.7 mph - N/A   Clear
3:15 PM -2.2 °F -21.5 °F -7.6 °F 78% 30.31 in 10.0 mi ESE 13.8 mph - N/A   Clear
3:35 PM -2.2 °F -20.7 °F -7.6 °F 78% 30.31 in 10.0 mi ESE 12.7 mph - N/A   Clear
3:55 PM -2.2 °F -21.5 °F -7.6 °F 78% 30.30 in 10.0 mi ESE 13.8 mph - N/A   Clear
4:15 PM -2.2 °F -22.9 °F -7.6 °F 78% 30.30 in 10.0 mi ESE 16.1 mph - N/A   Clear
4:35 PM -2.2 °F -23.5 °F -7.6 °F 78% 30.30 in 10.0 mi ESE 17.3 mph - N/A   Clear
4:55 PM -2.2 °F -24.1 °F -9.4 °F 71% 30.29 in 10.0 mi ESE 18.4 mph - N/A   Scattered Clouds
5:15 PM -2.2 °F -23.5 °F -9.4 °F 71% 30.29 in 10.0 mi ESE 17.3 mph - N/A   Scattered Clouds
5:35 PM -2.2 °F -22.2 °F -9.4 °F 71% 30.29 in 10.0 mi ESE 15.0 mph - N/A   Clear
5:55 PM -4.0 °F -25.8 °F -9.4 °F 78% 30.27 in 10.0 mi ESE 17.3 mph - N/A   Clear
6:15 PM -2.2 °F -23.5 °F -7.6 °F 78% 30.27 in 10.0 mi ESE 17.3 mph - N/A   Partly Cloudy
6:35 PM -4.0 °F -25.8 °F -7.6 °F 85% 30.26 in 10.0 mi ESE 17.3 mph - N/A   Scattered Clouds
6:55 PM -2.2 °F -23.5 °F -7.6 °F 78% 30.26 in 10.0 mi ESE 17.3 mph - N/A   Overcast
7:15 PM -2.2 °F -24.1 °F -7.6 °F 78% 30.26 in 10.0 mi ESE 18.4 mph - N/A   Overcast
7:35 PM -0.4 °F -20.5 °F -5.8 °F 78% 30.26 in 10.0 mi SE 16.1 mph - N/A   Overcast
7:55 PM -0.4 °F -21.7 °F -5.8 °F 78% 30.26 in 10.0 mi SE 18.4 mph - N/A   Overcast
8:15 PM -0.4 °F -23.3 °F -5.8 °F 78% 30.24 in 10.0 mi SE 21.9 mph - N/A   Mostly Cloudy
8:35 PM -0.4 °F -23.3 °F -4.0 °F 85% 30.24 in 10.0 mi SE 21.9 mph 25.3 mph N/A   Mostly Cloudy
8:55 PM -0.4 °F -23.3 °F -4.0 °F 85% 30.23 in 10.0 mi SE 21.9 mph 25.3 mph N/A   Partly Cloudy
9:15 PM 1.4 °F -21.0 °F -4.0 °F 78% 30.23 in 10.0 mi SE 21.9 mph - N/A   Mostly Cloudy
9:35 PM 1.4 °F -21.9 °F -2.2 °F 85% 30.23 in 7.0 mi SE 24.2 mph 29.9 mph N/A   Overcast
9:55 PM 3.2 °F -19.5 °F -2.2 °F 78% 30.22 in 6.0 mi SE 24.2 mph 31.1 mph N/A   Haze
10:15 PM 3.2 °F -19.0 °F -2.2 °F 78% 30.23 in 7.0 mi SE 23.0 mph - N/A   Overcast
10:35 PM 3.2 °F -17.6 °F -2.2 °F 78% 30.23 in 10.0 mi SE 19.6 mph - N/A   Overcast
10:55 PM 5.0 °F -15.7 °F -2.2 °F 72% 30.23 in 10.0 mi SE 20.7 mph - N/A   Mostly Cloudy
11:15 PM 5.0 °F -15.7 °F -2.2 °F 72% 30.23 in 10.0 mi SE 20.7 mph - N/A   Overcast
11:35 PM 5.0 °F -15.2 °F -0.4 °F 78% 30.24 in 10.0 mi SE 19.6 mph 24.2 mph N/A   Overcast
11:55 PM 5.0 °F -15.2 °F -0.4 °F 78% 30.23 in 10.0 mi SE 19.6 mph - N/A   Overcast